FW3192 Weather Reports


Display with metric or nautical units.
time (UTC)temp
F
wind
direction
speed
MPH
gust
MPH
rain 1hr
in
rain 24hr
in
rain mn
in
humidity
%
barometer
mb
20260905044523 0 0.0 0.0 0.00 0.17 0.13 1013.6
20260905043002 0 0.0 0.0 0.00 0.17 0.13 1013.4
20260905041600 0 0.0 0.0 0.00 0.17 0.13 1013.3
20260905041503 0 0.0 0.0 0.00 0.17 0.13 1013.3
20260905040058 0 0.0 0.0 0.00 0.17 0.13 1013.3
20260905034550 0 0.0 0.0 0.00 0.17 0.13 1013.5
20260905033049 0 0.0 0.0 0.00 0.17 0.13 1013.7
20260905031548 0 0.0 0.0 0.00 0.18 0.13 1013.7
20260905030036 0 0.0 0.0 0.00 0.18 0.13 1013.7
20260905024531 0 0.0 0.0 0.00 0.18 0.13 1013.5
20260905023010 0 0.0 0.0 0.00 0.18 0.13 1013.4
20260905021506 0 0.0 0.0 0.00 0.32 0.13 1013.3
20260905020053 0 0.0 0.0 0.00 0.32 0.13 1013.3
20260905014543 0 0.0 0.0 0.00 0.32 0.13 1013.2
20260905013047 0 0.0 0.0 0.00 0.32 0.13 1013.1
20260905011600 0 0.0 0.0 0.00 0.33 0.13 1012.8
20260905010029 0 0.0 0.0 0.03 0.33 0.13 1012.5
20260905004528 0 0.0 0.0 0.03 0.33 0.13 1012.4
20260905003028 54 254 13.0 21.0 0.08 0.33 0.13 94 1012.3
20260905001521 54 270 14.0 29.0 0.13 0.34 0.13 94 1012.1
20260905000017 54 266 7.0 15.0 0.10 0.31 0.10 95 1011.8
20260904234601 53 268 11.0 18.0 0.10 0.31 0.10 93 1011.7
20260904233053 57 262 17.0 29.0 0.05 0.26 0.05 84 1011.6
20260904231536 58 307 13.0 23.0 0.00 0.21 0.00 80 1010.9
20260904230036 58 252 10.0 24.0 0.00 0.21 0.00 80 1010.9
20260904224536 59 297 8.0 20.0 0.00 0.21 0.00 80 1010.9
20260904223032 59 268 10.0 17.0 0.00 0.21 0.00 79 1010.7
20260904221531 58 265 9.0 18.0 0.00 0.21 0.00 79 1010.7
20260904220029 58 275 7.0 15.0 0.00 0.21 0.00 79 1010.4
20260904214527 57 286 8.0 16.0 0.00 0.21 0.00 79 1010.4
20260904213025 57 258 9.0 17.0 0.00 0.21 0.00 80 1010.3
20260904210051 57 260 8.0 16.0 0.00 0.21 0.00 79 1010.0
20260904204549 57 315 7.0 17.0 0.00 0.21 0.00 79 1009.8
20260904203047 57 244 8.0 15.0 0.00 0.21 0.00 79 1009.6
20260904201544 58 288 6.0 15.0 0.00 0.21 0.00 81 1009.4
20260904200042 59 270 11.0 19.0 0.00 0.21 0.00 80 1009.1
20260904194554 59 282 11.0 24.0 0.00 0.21 0.00 81 1009.1
20260904193038 59 303 10.0 20.0 0.00 0.21 0.00 81 1008.8
20260904191522 59 283 8.0 14.0 0.00 0.21 0.00 84 1008.7
20260904190020 58 279 9.0 16.0 0.00 0.21 0.00 85 1008.7
20260904184517 58 315 9.0 13.0 0.00 0.21 0.00 86 1008.4
20260904183014 58 310 8.0 14.0 0.00 0.21 0.00 85 1008.2
20260904181536 59 318 7.0 12.0 0.00 0.21 0.00 84 1008.2
20260904180010 59 307 7.0 12.0 0.00 0.21 0.00 84 1008.1
20260904174507 59 303 8.0 15.0 0.00 0.21 0.00 83 1008.0
20260904173008 59 308 8.0 11.0 0.00 0.21 0.00 84 1008.0
20260904171558 60 312 6.0 11.0 0.00 0.21 0.00 83 1007.9
20260904170051 60 310 8.0 14.0 0.00 0.21 0.00 82 1008.0
20260904164549 60 301 6.0 10.0 0.00 0.21 0.00 83 1008.0
20260904163048 60 303 7.0 11.0 0.00 0.21 0.00 83 1008.1
20260904161548 60 311 7.0 11.0 0.00 0.21 0.00 83 1008.1
20260904160047 60 347 6.0 10.0 0.00 0.21 0.00 83 1008.0
20260904154549 61 320 6.0 9.0 0.00 0.21 0.00 82 1007.9
20260904153048 61 284 5.0 10.0 0.00 0.21 0.00 81 1007.5
20260904151535 60 289 4.0 9.0 0.00 0.21 0.00 83 1007.8
20260904150033 60 303 6.0 10.0 0.00 0.21 0.00 82 1007.8
20260904144530 60 303 9.0 13.0 0.00 0.21 0.00 82 1007.7
20260904143035 60 339 5.0 8.0 0.00 0.21 0.00 83 1007.2
20260904141527 60 325 6.0 11.0 0.00 0.21 0.00 83 1007.1
20260904140039 60 323 8.0 13.0 0.00 0.21 0.00 83 1007.3
20260904134526 60 9 5.0 10.0 0.00 0.21 0.00 83 1007.6
20260904133023 60 310 8.0 11.0 0.00 0.21 0.00 82 1007.7
20260904131521 60 331 6.0 10.0 0.00 0.21 0.00 84 1007.4
20260904130018 59 333 8.0 11.0 0.00 0.21 0.00 84 1007.5
20260904124516 60 4 6.0 10.0 0.00 0.21 0.00 84 1007.3
20260904123014 60 351 6.0 13.0 0.00 0.21 0.00 83 1007.5
20260904121515 61 3 7.0 12.0 0.00 0.21 0.00 83 1007.6
20260904120006 61 3 7.0 11.0 0.00 0.21 0.00 83 1007.8
20260904114549 61 355 6.0 11.0 0.00 0.21 0.00 84 1007.9
20260904113046 61 338 7.0 12.0 0.00 0.21 0.00 83 1008.0
20260904111526 62 332 9.0 14.0 0.00 0.21 0.00 81 1008.1
20260904110025 62 10 8.0 13.0 0.00 0.21 0.21 82 1008.1
20260904104624 63 6 8.0 12.0 0.00 0.21 0.21 81 1007.9
20260904103026 63 3 8.0 12.0 0.00 0.21 0.21 81 1008.0
20260904101522 64 35 11.0 17.0 0.00 0.21 0.21 80 1007.4
20260904100030 64 321 8.0 14.0 0.00 0.21 0.21 80 1008.2
20260904094529 64 2 7.0 15.0 0.00 0.21 0.21 80 1008.0
20260904093021 64 8 10.0 14.0 0.00 0.21 0.21 80 1007.7
20260904091508 65 350 8.0 11.0 0.00 0.21 0.21 81 1007.6
20260904090006 64 18 6.0 9.0 0.00 0.21 0.21 84 1007.7
20260904084506 64 38 4.0 7.0 0.00 0.21 0.21 88 1007.7
20260904083014 64 8 4.0 7.0 0.04 0.21 0.21 89 1007.7
20260904081505 64 64 0.0 3.0 0.04 0.21 0.21 89 1007.6
20260904080004 65 84 2.0 6.0 0.04 0.21 0.21 87 1007.5
20260904074503 66 16 4.0 7.0 0.04 0.21 0.21 86 1007.8
20260904073003 66 36 4.0 8.0 0.00 0.17 0.17 84 1007.8
20260904071602 67 47 3.0 7.0 0.00 0.17 0.17 84 1007.8
20260904070046 67 38 4.0 8.0 0.00 0.17 0.17 83 1008.1
20260904064543 67 49 3.0 8.0 0.00 0.17 0.17 83 1008.2
20260904063044 66 28 4.0 8.0 0.00 0.17 0.17 82 1008.4
20260904061542 66 49 5.0 10.0 0.00 0.17 0.17 82 1008.4
20260904060040 66 42 10.0 14.0 0.00 0.17 0.17 80 1008.4
20260904054541 66 34 8.0 16.0 0.00 0.17 0.17 79 1008.6
20260904053034 66 40 6.0 14.0 0.00 0.17 0.17 79 1008.6
20260904051514 65 38 8.0 16.0 0.00 0.17 0.17 81 1008.9
20260904050010 64 29 8.0 15.0 0.00 0.17 0.17 80 1009.3